EW0991 Weather Reports


time (UTC)temp
C
wind
direction
speed
KPH
gust
KPH
rain 1hr
cm
rain 24hr
cm
rain mn
cm
humidity
%
barometer
mb
20260504120124 9 278 0.0 0.0 0.00 0.00 0.00 59 1015.0
20260504081524 6 241 0.0 0.0 0.00 0.00 0.00 65 1015.1
20260504050001 7 287 0.0 0.0 0.00 0.00 0.00 58 1014.9
20260504044600 7 255 0.0 0.0 0.00 0.00 0.00 60 1015.0
20260504043114 7 249 0.0 0.0 0.00 0.00 0.00 59 1014.9
20260504041554 8 249 0.0 0.0 0.00 0.00 0.00 57 1014.9
20260504040051 9 249 0.0 0.0 0.00 0.00 0.00 52 1014.6
20260504034553 10 248 0.0 0.0 0.00 0.00 0.00 48 1014.4
20260504033101 11 273 0.0 0.0 0.00 0.00 0.00 44 1014.3
20260504031555 11 248 0.0 0.0 0.00 0.00 0.00 43 1014.3
20260504024549 11 264 0.0 0.0 0.00 0.00 0.00 42 1014.2
20260504023049 11 236 0.0 0.0 0.00 0.00 0.00 42 1014.3
20260504021550 12 231 0.0 0.0 0.00 0.00 0.00 42 1014.2
20260504020053 12 261 0.0 0.0 0.00 0.00 0.00 42 1014.2
20260504014547 12 268 0.0 0.0 0.00 0.00 0.00 42 1014.1
20260504013052 12 212 0.0 0.0 0.00 0.00 0.00 42 1014.2
20260504011546 12 266 0.0 0.0 0.00 0.00 0.00 42 1014.1
20260504010054 12 259 0.0 0.0 0.00 0.00 0.00 43 1013.9
20260504004546 12 239 0.0 0.0 0.00 0.00 0.00 43 1013.7
20260504003044 12 265 0.0 0.0 0.00 0.00 0.00 42 1013.4
20260504001545 12 244 0.0 0.0 0.00 0.00 0.00 42 1013.3
20260504000043 12 239 0.0 0.0 0.00 0.00 0.00 40 1013.2
20260503234542 13 269 0.0 0.0 0.00 0.00 0.00 37 1013.0
20260503233041 14 250 0.0 0.0 0.00 0.00 0.00 35 1012.9
20260503231541 15 257 0.0 0.0 0.00 0.00 0.00 33 1012.9
20260503230056 15 278 0.0 0.0 0.00 0.00 0.00 33 1012.7
20260503224539 15 278 0.0 0.0 0.00 0.00 0.00 34 1012.8
20260503223049 15 269 0.0 0.0 0.00 0.00 0.00 33 1012.6
20260503221546 15 281 0.0 0.0 0.00 0.00 0.00 33 1012.7
20260503220039 15 302 0.0 0.0 0.00 0.00 0.00 33 1012.7
20260503214550 15 308 0.0 0.0 0.00 0.00 0.00 32 1012.7
20260503213036 15 313 0.0 0.0 0.00 0.00 0.00 31 1012.6
20260503211535 15 255 0.0 0.0 0.00 0.00 0.00 31 1012.6
20260503210035 15 255 0.0 0.0 0.00 0.00 0.00 31 1012.6
20260503204539 15 297 0.0 0.0 0.00 0.00 0.00 31 1012.6
20260503203031 14 302 0.0 0.0 0.00 0.00 0.00 30 1012.7
20260503201530 14 345 0.0 0.0 0.00 0.00 0.00 31 1012.8
20260503200026 13 260 0.0 0.0 0.00 0.00 0.00 33 1013.1
20260503194525 13 278 0.0 0.0 0.00 0.00 0.00 33 1013.3
20260503193025 13 1 0.0 0.0 0.00 0.00 0.00 32 1013.4
20260503191523 13 274 0.0 0.0 0.00 0.00 0.00 33 1013.6
20260503190026 12 235 0.0 0.0 0.00 0.00 0.00 33 1013.7
20260503184520 12 316 0.0 0.0 0.00 0.00 0.00 34 1014.0
20260503183018 12 273 0.0 0.0 0.00 0.00 0.00 35 1014.3
20260503181534 12 340 0.0 0.0 0.00 0.00 0.00 36 1014.2
20260503180024 11 262 0.0 0.0 0.00 0.00 0.00 36 1014.2
20260503174513 12 297 0.0 0.0 0.00 0.00 0.00 37 1014.4
20260503173011 11 348 0.0 0.0 0.00 0.00 0.00 38 1014.3
20260503171520 11 343 0.0 0.0 0.00 0.00 0.00 39 1014.6